You are listening to:
LHBP Info - Budapest, Hungary

LHBP 121400Z 32007KT 9999 -RA BKN035 BKN056 18/14 Q1014 NOSIG

If stream doesn't start automatically press the play button
If stream stops then reload player then press play